Вернуться в каталог

RADUGA 23

АктивенВоенныеGEO
NORAD 19928·PAYLOAD·🇷🇺 Russia

Запущен Apr 14, 1989 с Baikonur Cosmodrome

Loading…

TLE

СвежийSource: Space-Track

Эпоха: Sep 13, 2026, 17:38 UTC

1 19928U 89030A   26256.73531454 -.00000126  00000-0  00000-0 0  9992
2 19928  11.7033 331.4003 0020492 212.1514 152.4038  1.00179912135746

Отслеживайте RADUGA 23 в реальном времени с AllMySat

Download on the App Store